Torna al catalogo

RASSVET-2 NO. 3

AttivoComunicazioniSSO
NORAD 59781·PAYLOAD·🇷🇺 Russia
Questo nome del satellite non è ancora stato confermato da fonti ufficiali.

Lanciato May 16, 2024 da Plesetsk Cosmodrome

Loading…

Prossimi Passaggi (prossime 24 ore)

TLE

AggiornatoSource: Space-Track

Epoca: Sep 14, 2026, 14:21 UTC

1 59781U 24092J   26257.59857012  .00000118  00000-0  60984-4 0  9997
2 59781  98.6796  16.5846 0011195 310.4040  49.6165 14.31875546121690

Traccia RASSVET-2 NO. 3 in tempo reale con AllMySat

Download on the App Store